TITAN 3C TRANSTAGE DEB, 38703

Orbit data source: Space-Track

TITAN 3C TRANSTAGE DEB, 38703 is space debris in GEO originally from a launch on Thu, 26 Sep 1968 UTC launched from the Air Force Eastern Test Range (AFETR). Debris objects in space refer to the collection of defunct objects orbiting the Earth. Examples of debris include non-operational satellites, rocket bodies, and fragments generated from explosions, collisions, or faulty payload assembly.

Not visible in the next 10 days
Identifier
38703, 1968-081AD
Orbit
GEO
Country
Flag of USUS
Related business
Manufacturer
Unknown
Mission
Spacecraft
Bus & Motor
Unknown
Mass
Unknown
Launch date (UTC)
1968-09-26 (57 years ago)
Launch vehicle
Unknown
Launch site
Air Force Eastern Test Range (AFETR)
Object type
Payload
Rocket body
Debris
Shape & HBR
Unknown
Radar Cross Section
Small (<0.1 m²)

Expand to show TLE details & history
Last TLE update: 2 days ago

TLE from 2 days ago
0 TITAN 3C TRANSTAGE DEB
1 38703U 68081AD  25258.09711065 -.00000205  00000-0  00000-0 0  9993
2 38703   2.1962  82.2457 0243074  62.4312 300.4866  1.05421851 44562
Epoch: 2025-09-15T02:19Z
TLE epoch observation values (Epoch: 2025-09-15T02:19:50.36Z)
Latitude
0.00001°
Longitude
53.44324°
Altitude
33,918.252 km
Speed
3.164 km/s
True Right ascension
05h 30m 50s
True Declination
0° 00' 00"
Sunlit
Object was in daylight at epoch
Visualization orbit readout
Latitude
Unknown
Longitude
Unknown
Altitude
Unknown
Speed
Unknown
Apparent Right ascension
Unknown
Apparent Declination
Unknown
Sunlit
N/A
Visualization observer readout
Local Sidereal Time
12:24:42
Azimuth
Unknown
Elevation
Unknown
Doppler factor
Unknown
Orbital elements
Apogee altitude
35,394.332 km
Perigee altitude
33,411.763 km
Semi-major axis
40,781.184 km
Eccentricity
0.02431
Inclination
2.1962°
RAAN
82.2457°
Arg. of periapsis
62.4312°
True anomaly
298.04945°
Mean anomaly
300.4866°
Eccentric anomaly
299.27172°
Mean motion
0.26354 °/min
Orbital period
1,365.99 mins
BSTAR
0
Loading maneuver chart data...
Computing Atmospheric mass density...

Documentation

Showing up to 5 results
|